| time (UTC) | temp C | wind direction | speed KPH | gust KPH | rain 1hr cm | rain 24hr cm | rain mn cm | humidity % | barometer mb |
| 20260507230946 | 23 | 239 | 0.0 | 0.0 | 0.00 | 0.13 | 0.13 | 91 | 1010.9 |
| 20260507230443 | 23 | 224 | 0.0 | 0.0 | 0.00 | 0.13 | 0.13 | 91 | 1011.0 |
| 20260507225938 | 23 | 232 | 0.0 | 0.0 | 0.00 | 0.13 | 0.13 | 90 | 1011.0 |
| 20260507225429 | 23 | 236 | 0.0 | 0.0 | 0.00 | 0.13 | 0.13 | 90 | 1010.7 |
| 20260507224925 | 23 | 277 | 0.0 | 0.0 | 0.00 | 0.13 | 0.13 | 90 | 1010.9 |
| 20260507224421 | 23 | 168 | 0.0 | 0.0 | 0.00 | 0.13 | 0.13 | 87 | 1011.0 |
| 20260507223918 | 23 | 229 | 0.0 | 0.0 | 0.00 | 0.13 | 0.13 | 88 | 1011.0 |
| 20260507223414 | 23 | 225 | 0.0 | 0.0 | 0.00 | 0.13 | 0.13 | 89 | 1011.0 |
| 20260507222911 | 23 | 239 | 0.0 | 0.0 | 0.00 | 0.13 | 0.13 | 87 | 1011.0 |
| 20260507222408 | 24 | 236 | 0.0 | 0.0 | 0.00 | 0.13 | 0.13 | 89 | 1011.1 |
| 20260507221905 | 24 | 175 | 0.0 | 0.0 | 0.00 | 0.13 | 0.13 | 89 | 1010.7 |
| 20260507221401 | 24 | 242 | 0.0 | 0.0 | 0.00 | 0.13 | 0.13 | 88 | 1010.7 |
| 20260507220857 | 24 | 241 | 0.0 | 0.0 | 0.00 | 0.13 | 0.13 | 87 | 1010.7 |
| 20260507220355 | 24 | 231 | 0.0 | 0.0 | 0.00 | 0.13 | 0.13 | 90 | 1010.7 |
| 20260507215851 | 25 | 229 | 0.0 | 0.0 | 0.00 | 0.13 | 0.13 | 91 | 1010.6 |
| 20260507215348 | 25 | 213 | 0.0 | 0.0 | 0.00 | 0.13 | 0.13 | 88 | 1010.6 |
| 20260507214845 | 25 | 259 | 0.0 | 0.0 | 0.00 | 0.13 | 0.13 | 87 | 1011.0 |
| 20260507214343 | 26 | 259 | 0.0 | 0.0 | 0.00 | 0.13 | 0.13 | 84 | 1010.7 |
| 20260507213838 | 25 | 239 | 0.0 | 0.0 | 0.00 | 0.13 | 0.13 | 86 | 1010.9 |
| 20260507213335 | 25 | 235 | 0.0 | 0.0 | 0.00 | 0.13 | 0.13 | 86 | 1010.6 |
| 20260507212831 | 25 | 225 | 0.0 | 0.0 | 0.00 | 0.13 | 0.13 | 85 | 1010.9 |
| 20260507212327 | 25 | 253 | 0.0 | 0.0 | 0.00 | 0.13 | 0.13 | 90 | 1010.9 |
| 20260507211824 | 25 | 63 | 0.0 | 0.0 | 0.00 | 0.13 | 0.13 | 91 | 1010.9 |
| 20260507211321 | 23 | 230 | 0.0 | 0.0 | 0.00 | 0.13 | 0.13 | 93 | 1010.8 |
| 20260507210818 | 23 | 221 | 0.0 | 0.0 | 0.00 | 0.13 | 0.13 | 94 | 1011.0 |
| 20260507210315 | 23 | 220 | 0.0 | 0.0 | 0.00 | 0.13 | 0.13 | 96 | 1011.0 |
| 20260507205811 | 23 | 219 | 0.0 | 0.0 | 0.00 | 0.13 | 0.13 | 98 | 1011.0 |
| 20260507205308 | 23 | 217 | 0.0 | 0.0 | 0.00 | 0.13 | 0.13 | 97 | 1011.0 |
| 20260507204804 | 23 | 219 | 0.0 | 0.0 | 0.00 | 0.13 | 0.13 | 97 | 1011.0 |
| 20260507204302 | 23 | 220 | 0.0 | 0.0 | 0.00 | 0.13 | 0.13 | 97 | 1011.1 |
| 20260507203800 | 23 | 208 | 0.0 | 0.0 | 0.00 | 0.13 | 0.13 | 97 | 1011.0 |
| 20260507203258 | 23 | 208 | 0.0 | 0.0 | 0.00 | 0.13 | 0.13 | 97 | 1011.0 |
| 20260507202753 | 22 | 208 | 0.0 | 0.0 | 0.00 | 0.13 | 0.13 | 97 | 1011.1 |
| 20260507202249 | 22 | 208 | 0.0 | 0.0 | 0.00 | 0.13 | 0.13 | 97 | 1011.1 |
| 20260507201744 | 22 | 208 | 0.0 | 0.0 | 0.00 | 0.13 | 0.13 | 97 | 1011.1 |
| 20260507201241 | 23 | 194 | 0.0 | 0.0 | 0.00 | 0.13 | 0.13 | 98 | 1011.1 |
| 20260507200737 | 23 | 202 | 0.0 | 0.0 | 0.00 | 0.13 | 0.13 | 97 | 1011.0 |
| 20260507200233 | 23 | 190 | 0.0 | 0.0 | 0.00 | 0.13 | 0.13 | 96 | 1011.3 |
| 20260507195730 | 23 | 212 | 0.0 | 0.0 | 0.00 | 0.13 | 0.13 | 96 | 1011.2 |
| 20260507195227 | 23 | 208 | 0.0 | 0.0 | 0.00 | 0.13 | 0.13 | 95 | 1011.2 |
| 20260507194724 | 23 | 234 | 0.0 | 0.0 | 0.00 | 0.13 | 0.13 | 94 | 1011.1 |
| 20260507194220 | 23 | 167 | 0.0 | 0.0 | 0.00 | 0.13 | 0.13 | 96 | 1011.2 |
| 20260507193717 | 23 | 177 | 0.0 | 0.0 | 0.00 | 0.13 | 0.13 | 96 | 1011.1 |
| 20260507193214 | 23 | 226 | 0.0 | 0.0 | 0.00 | 0.13 | 0.13 | 97 | 1011.0 |
| 20260507192710 | 23 | 282 | 0.0 | 0.0 | 0.00 | 0.13 | 0.13 | 97 | 1011.1 |
| 20260507192207 | 23 | 234 | 0.0 | 0.0 | 0.00 | 0.13 | 0.13 | 97 | 1011.2 |
| 20260507191703 | 23 | 202 | 0.0 | 0.0 | 0.00 | 0.13 | 0.13 | 98 | 1011.3 |
| 20260507191200 | 23 | 352 | 0.0 | 0.0 | 0.00 | 0.13 | 0.13 | 99 | 1011.2 |
| 20260507190651 | 23 | 305 | 0.0 | 0.0 | 0.00 | 0.13 | 0.13 | 99 | 1011.1 |
| 20260507190149 | 22 | 251 | 0.0 | 0.0 | 0.00 | 0.13 | 0.13 | 99 | 1011.1 |
| 20260507185647 | 22 | 88 | 0.0 | 0.0 | 0.00 | 0.13 | 0.13 | 99 | 1011.2 |
| 20260507185144 | 23 | 232 | 0.0 | 0.0 | 0.00 | 0.13 | 0.13 | 99 | 1011.3 |
| 20260507184642 | 22 | 200 | 0.0 | 0.0 | 0.00 | 0.13 | 0.13 | 99 | 1011.2 |
| 20260507184140 | 22 | 215 | 0.0 | 0.0 | 0.00 | 0.13 | 0.13 | 99 | 1011.2 |
| 20260507183636 | 22 | 96 | 0.0 | 0.0 | 0.00 | 0.13 | 0.13 | 99 | 1011.1 |
| 20260507183133 | 21 | 234 | 0.0 | 0.0 | 0.00 | 0.13 | 0.13 | 99 | 1011.4 |
| 20260507182629 | 21 | 261 | 0.0 | 0.0 | 0.00 | 0.13 | 0.13 | 99 | 1011.4 |
| 20260507182126 | 22 | 238 | 0.0 | 0.0 | 0.00 | 0.13 | 0.13 | 99 | 1011.5 |
| 20260507181622 | 22 | 278 | 0.0 | 0.0 | 0.00 | 0.13 | 0.13 | 99 | 1011.3 |
| 20260507181118 | 21 | 278 | 0.0 | 0.0 | 0.00 | 0.13 | 0.13 | 99 | 1011.6 |
| 20260507180615 | 21 | 228 | 0.0 | 0.0 | 0.00 | 0.13 | 0.13 | 99 | 1011.4 |
| 20260507180112 | 21 | 231 | 0.0 | 0.0 | 0.00 | 0.13 | 0.13 | 99 | 1011.3 |
| 20260507175608 | 21 | 201 | 0.0 | 0.0 | 0.00 | 0.13 | 0.13 | 99 | 1011.2 |
| 20260507175106 | 21 | 208 | 0.0 | 0.0 | 0.00 | 0.13 | 0.13 | 99 | 1010.9 |
| 20260507174602 | 20 | 214 | 0.0 | 0.0 | 0.00 | 0.13 | 0.13 | 99 | 1011.3 |
| 20260507174100 | 20 | 213 | 0.0 | 0.0 | 0.00 | 0.13 | 0.13 | 99 | 1011.2 |
| 20260507173557 | 20 | 207 | 0.0 | 0.0 | 0.00 | 0.13 | 0.13 | 99 | 1011.0 |
| 20260507173054 | 20 | 206 | 0.0 | 0.0 | 0.00 | 0.13 | 0.13 | 99 | 1011.8 |
| 20260507172550 | 20 | 207 | 0.0 | 0.0 | 0.00 | 0.13 | 0.13 | 99 | 1012.0 |
| 20260507172047 | 20 | 206 | 0.0 | 0.0 | 0.00 | 0.13 | 0.13 | 99 | 1011.8 |
| 20260507171542 | 20 | 207 | 0.0 | 0.0 | 0.00 | 0.13 | 0.13 | 99 | 1012.0 |
| 20260507171040 | 20 | 207 | 0.0 | 0.0 | 0.00 | 0.13 | 0.13 | 99 | 1011.7 |
| 20260507170536 | 20 | 197 | 0.0 | 0.0 | 0.00 | 0.13 | 0.13 | 99 | 1011.9 |
| 20260507170034 | 20 | 194 | 0.0 | 0.0 | 0.00 | 0.13 | 0.13 | 99 | 1011.4 |
| 20260507165529 | 20 | 198 | 0.0 | 0.0 | 0.00 | 0.13 | 0.13 | 99 | 1012.0 |
| 20260507165026 | 20 | 242 | 0.0 | 0.0 | 0.00 | 0.13 | 0.13 | 99 | 1012.1 |
| 20260507164522 | 20 | 212 | 0.0 | 0.0 | 0.00 | 0.13 | 0.13 | 99 | 1011.9 |
| 20260507164019 | 20 | 219 | 0.0 | 0.0 | 0.00 | 0.13 | 0.13 | 99 | 1012.2 |
| 20260507163516 | 20 | 256 | 0.0 | 0.0 | 0.00 | 0.13 | 0.13 | 99 | 1012.4 |
| 20260507163015 | 20 | 334 | 0.0 | 0.0 | 0.00 | 0.13 | 0.13 | 99 | 1012.4 |
| 20260507162509 | 20 | 217 | 0.0 | 0.0 | 0.00 | 0.13 | 0.13 | 99 | 1012.5 |
| 20260507162006 | 20 | 182 | 0.0 | 0.0 | 0.00 | 0.13 | 0.13 | 99 | 1012.3 |
| 20260507161502 | 20 | 241 | 0.0 | 0.0 | 0.00 | 0.13 | 0.13 | 99 | 1012.3 |
| 20260507160959 | 20 | 225 | 0.0 | 0.0 | 0.00 | 0.13 | 0.13 | 99 | 1012.5 |
| 20260507160455 | 20 | 217 | 0.0 | 0.0 | 0.00 | 0.13 | 0.13 | 99 | 1012.5 |
| 20260507155951 | 20 | 143 | 0.0 | 0.0 | 0.00 | 0.13 | 0.13 | 99 | 1012.4 |
| 20260507155447 | 20 | 213 | 0.0 | 0.0 | 0.00 | 0.13 | 0.13 | 99 | 1012.2 |
| 20260507154944 | 20 | 217 | 0.0 | 0.0 | 0.00 | 0.13 | 0.13 | 99 | 1012.2 |
| 20260507154441 | 20 | 245 | 0.0 | 0.0 | 0.00 | 0.13 | 0.13 | 99 | 1012.2 |
| 20260507153938 | 20 | 229 | 0.0 | 0.0 | 0.00 | 0.13 | 0.13 | 99 | 1012.4 |
| 20260507153435 | 20 | 224 | 0.0 | 0.0 | 0.00 | 0.13 | 0.13 | 99 | 1012.2 |
| 20260507152931 | 20 | 240 | 0.0 | 0.0 | 0.00 | 0.13 | 0.13 | 99 | 1011.8 |
| 20260507152427 | 20 | 222 | 0.0 | 0.0 | 0.00 | 0.13 | 0.13 | 99 | 1011.5 |
| 20260507151923 | 20 | 195 | 0.0 | 0.0 | 0.00 | 0.13 | 0.13 | 99 | 1011.2 |
| 20260507151420 | 20 | 201 | 0.0 | 0.0 | 0.00 | 0.13 | 0.13 | 99 | 1011.3 |
| 20260507150917 | 20 | 190 | 0.0 | 0.0 | 0.00 | 0.13 | 0.13 | 99 | 1011.4 |
| 20260507150414 | 20 | 184 | 0.0 | 0.0 | 0.00 | 0.13 | 0.13 | 99 | 1011.6 |
| 20260507145910 | 20 | 166 | 0.0 | 0.0 | 0.00 | 0.13 | 0.13 | 99 | 1011.7 |
| 20260507145406 | 20 | 355 | 0.0 | 0.0 | 0.00 | 0.13 | 0.13 | 99 | 1011.6 |
| 20260507144903 | 20 | 234 | 0.0 | 0.0 | 0.00 | 0.13 | 0.13 | 99 | 1011.4 |
| 20260507144400 | 20 | 229 | 0.0 | 0.0 | 0.00 | 0.13 | 0.13 | 99 | 1011.9 |
| 20260507143857 | 20 | 197 | 0.0 | 0.0 | 0.00 | 0.13 | 0.13 | 99 | 1011.2 |
| 20260507143354 | 20 | 211 | 0.0 | 0.0 | 0.00 | 0.13 | 0.13 | 99 | 1011.4 |
| 20260507142851 | 20 | 210 | 0.0 | 0.0 | 0.00 | 0.13 | 0.13 | 99 | 1011.1 |
| 20260507142347 | 20 | 200 | 0.0 | 0.0 | 0.00 | 0.13 | 0.13 | 99 | 1011.8 |
| 20260507141844 | 20 | 217 | 0.0 | 0.0 | 0.00 | 0.13 | 0.13 | 99 | 1012.0 |
| 20260507141340 | 20 | 215 | 0.0 | 0.0 | 0.00 | 0.13 | 0.13 | 99 | 1011.8 |
| 20260507140837 | 20 | 154 | 0.0 | 0.0 | 0.00 | 0.13 | 0.13 | 99 | 1012.0 |
| 20260507140334 | 20 | 184 | 0.0 | 0.0 | 0.00 | 0.13 | 0.13 | 99 | 1012.4 |
| 20260507135832 | 20 | 205 | 0.0 | 0.0 | 0.00 | 0.13 | 0.13 | 99 | 1012.4 |
| 20260507135328 | 20 | 182 | 0.0 | 0.0 | 0.00 | 0.13 | 0.13 | 99 | 1012.3 |
| 20260507134825 | 20 | 182 | 0.0 | 0.0 | 0.00 | 0.13 | 0.13 | 99 | 1011.8 |
| 20260507134321 | 20 | 219 | 0.0 | 0.0 | 0.00 | 0.13 | 0.13 | 99 | 1011.9 |
| 20260507133817 | 20 | 213 | 0.0 | 0.0 | 0.00 | 0.13 | 0.13 | 99 | 1012.6 |
| 20260507133313 | 20 | 205 | 0.0 | 0.0 | 0.00 | 0.13 | 0.13 | 99 | 1012.7 |
| 20260507132812 | 20 | 252 | 0.0 | 0.0 | 0.00 | 0.13 | 0.13 | 99 | 1012.7 |
| 20260507132308 | 20 | 225 | 0.0 | 0.0 | 0.00 | 0.13 | 0.13 | 99 | 1011.9 |
| 20260507131805 | 20 | 221 | 0.0 | 0.0 | 0.00 | 0.13 | 0.13 | 99 | 1012.3 |
| 20260507131302 | 20 | 234 | 0.0 | 0.0 | 0.00 | 0.13 | 0.13 | 99 | 1012.0 |
| 20260507130758 | 20 | 237 | 0.0 | 0.0 | 0.00 | 0.13 | 0.13 | 99 | 1012.1 |
| 20260507130256 | 20 | 206 | 0.0 | 0.0 | 0.00 | 0.13 | 0.13 | 99 | 1012.0 |
| 20260507125755 | 20 | 229 | 0.0 | 0.0 | 0.00 | 0.13 | 0.13 | 99 | 1012.2 |
| 20260507125252 | 20 | 211 | 0.0 | 0.0 | 0.00 | 0.13 | 0.13 | 99 | 1012.0 |
| 20260507124749 | 19 | 214 | 0.0 | 0.0 | 0.00 | 0.13 | 0.13 | 99 | 1011.8 |
| 20260507124245 | 19 | 215 | 0.0 | 0.0 | 0.00 | 0.13 | 0.13 | 99 | 1012.1 |
| 20260507123744 | 19 | 216 | 0.0 | 0.0 | 0.00 | 0.13 | 0.13 | 99 | 1012.1 |
| 20260507123241 | 19 | 211 | 0.0 | 0.0 | 0.00 | 0.13 | 0.13 | 99 | 1011.7 |
| 20260507122736 | 19 | 223 | 0.0 | 0.0 | 0.00 | 0.13 | 0.13 | 99 | 1011.7 |
| 20260507122232 | 19 | 174 | 0.0 | 0.0 | 0.00 | 0.13 | 0.13 | 99 | 1011.6 |
| 20260507121728 | 19 | 209 | 0.0 | 0.0 | 0.00 | 0.13 | 0.13 | 99 | 1011.6 |
| 20260507121224 | 19 | 112 | 0.0 | 0.0 | 0.00 | 0.13 | 0.13 | 99 | 1011.4 |
| 20260507120720 | 19 | 211 | 0.0 | 0.0 | 0.00 | 0.13 | 0.13 | 99 | 1011.4 |
| 20260507120218 | 19 | 207 | 0.0 | 0.0 | 0.00 | 0.13 | 0.13 | 99 | 1010.9 |
| 20260507115714 | 19 | 188 | 0.0 | 0.0 | 0.00 | 0.13 | 0.13 | 99 | 1010.8 |
| 20260507115209 | 19 | 208 | 0.0 | 0.0 | 0.00 | 0.13 | 0.13 | 99 | 1010.8 |
| 20260507114705 | 19 | 235 | 0.0 | 0.0 | 0.00 | 0.13 | 0.13 | 99 | 1011.2 |
| 20260507114203 | 18 | 228 | 0.0 | 0.0 | 0.00 | 0.13 | 0.13 | 99 | 1010.6 |
| 20260507113700 | 18 | 227 | 0.0 | 0.0 | 0.00 | 0.13 | 0.13 | 99 | 1009.7 |
| 20260507113157 | 18 | 207 | 0.0 | 0.0 | 0.00 | 0.13 | 0.13 | 99 | 1010.1 |
| 20260507112655 | 18 | 180 | 0.0 | 0.0 | 0.00 | 0.13 | 0.13 | 99 | 1010.7 |
| 20260507112151 | 18 | 230 | 0.0 | 0.0 | 0.00 | 0.13 | 0.13 | 99 | 1011.0 |
| 20260507111649 | 18 | 190 | 0.0 | 0.0 | 0.00 | 0.13 | 0.13 | 99 | 1010.9 |
| 20260507111145 | 18 | 5 | 0.0 | 0.0 | 0.00 | 0.13 | 0.13 | 99 | 1011.2 |
| 20260507110641 | 19 | 31 | 0.0 | 0.0 | 0.00 | 0.13 | 0.13 | 99 | 1011.6 |
| 20260507110138 | 19 | 196 | 0.0 | 0.0 | 0.00 | 0.13 | 0.13 | 99 | 1012.1 |
| 20260507105635 | 19 | 194 | 0.0 | 0.0 | 0.00 | 0.13 | 0.13 | 99 | 1012.1 |
| 20260507105131 | 19 | 234 | 0.0 | 0.0 | 0.00 | 0.13 | 0.13 | 99 | 1012.5 |
| 20260507104629 | 19 | 318 | 0.0 | 0.0 | 0.00 | 0.13 | 0.13 | 99 | 1012.5 |
| 20260507104125 | 19 | 193 | 0.0 | 0.0 | 0.00 | 0.13 | 0.13 | 99 | 1012.0 |
| 20260507103621 | 19 | 228 | 0.0 | 0.0 | 0.00 | 0.13 | 0.13 | 99 | 1012.6 |
| 20260507103118 | 19 | 234 | 0.0 | 0.0 | 0.00 | 0.13 | 0.13 | 99 | 1012.5 |
| 20260507102614 | 19 | 225 | 0.0 | 0.0 | 0.00 | 0.13 | 0.13 | 99 | 1012.8 |
| 20260507102110 | 19 | 225 | 0.0 | 0.0 | 0.00 | 0.13 | 0.13 | 99 | 1012.9 |
| 20260507101607 | 19 | 225 | 0.0 | 0.0 | 0.00 | 0.13 | 0.13 | 99 | 1012.9 |
| 20260507101102 | 19 | 225 | 0.0 | 0.0 | 0.00 | 0.13 | 0.13 | 99 | 1012.9 |
| 20260507100600 | 19 | 228 | 0.0 | 0.0 | 0.00 | 0.13 | 0.13 | 99 | 1013.1 |
| 20260507100058 | 19 | 221 | 0.0 | 0.0 | 0.00 | 0.13 | 0.13 | 99 | 1012.9 |
| 20260507095555 | 19 | 215 | 0.0 | 0.0 | 0.00 | 0.13 | 0.13 | 99 | 1012.7 |
| 20260507095052 | 19 | 216 | 0.0 | 0.0 | 0.00 | 0.13 | 0.13 | 99 | 1013.1 |
| 20260507094548 | 19 | 223 | 0.0 | 0.0 | 0.00 | 0.13 | 0.13 | 99 | 1012.9 |
| 20260507094046 | 19 | 208 | 0.0 | 0.0 | 0.00 | 0.13 | 0.13 | 99 | 1012.5 |
| 20260507093543 | 19 | 182 | 0.0 | 0.0 | 0.00 | 0.13 | 0.13 | 99 | 1012.6 |
| 20260507093042 | 19 | 194 | 0.0 | 0.0 | 0.00 | 0.13 | 0.13 | 99 | 1012.9 |
| 20260507092537 | 19 | 204 | 0.0 | 0.0 | 0.00 | 0.13 | 0.13 | 99 | 1013.0 |
| 20260507092034 | 19 | 213 | 0.0 | 0.0 | 0.00 | 0.13 | 0.13 | 99 | 1012.9 |
| 20260507091531 | 19 | 210 | 0.0 | 0.0 | 0.00 | 0.13 | 0.13 | 99 | 1013.4 |
| 20260507091027 | 19 | 0 | 0.0 | 0.0 | 0.00 | 0.13 | 0.13 | 99 | 1013.6 |
| 20260507090523 | 19 | 208 | 0.0 | 0.0 | 0.00 | 0.13 | 0.13 | 99 | 1013.3 |
| 20260507090020 | 19 | 195 | 0.0 | 0.0 | 0.00 | 0.13 | 0.13 | 99 | 1013.4 |
| 20260507085517 | 20 | 179 | 0.0 | 0.0 | 0.00 | 0.13 | 0.13 | 99 | 1014.0 |
| 20260507085014 | 20 | 212 | 0.0 | 0.0 | 0.00 | 0.13 | 0.13 | 99 | 1014.6 |
| 20260507084511 | 20 | 207 | 0.0 | 0.0 | 0.00 | 0.13 | 0.13 | 99 | 1014.6 |
| 20260507084008 | 20 | 233 | 0.0 | 0.0 | 0.00 | 0.13 | 0.13 | 99 | 1014.6 |
| 20260507083504 | 20 | 223 | 0.0 | 0.0 | 0.18 | 0.13 | 0.13 | 99 | 1014.1 |
| 20260507083001 | 20 | 206 | 0.0 | 0.0 | 0.18 | 0.13 | 0.13 | 99 | 1014.1 |
| 20260507082457 | 20 | 217 | 0.0 | 0.0 | 0.18 | 0.13 | 0.13 | 99 | 1013.4 |
| 20260507081953 | 20 | 197 | 0.0 | 0.0 | 0.00 | 0.10 | 0.10 | 99 | 1013.5 |
| 20260507081449 | 20 | 207 | 0.0 | 0.0 | 0.00 | 0.10 | 0.10 | 99 | 1013.8 |
| 20260507080947 | 20 | 220 | 0.0 | 0.0 | 0.00 | 0.10 | 0.10 | 99 | 1014.1 |
| 20260507080442 | 20 | 202 | 0.0 | 0.0 | 0.13 | 0.10 | 0.10 | 99 | 1013.9 |
| 20260507075937 | 20 | 228 | 0.0 | 0.0 | 0.13 | 0.10 | 0.10 | 99 | 1013.8 |
| 20260507075435 | 20 | 195 | 0.0 | 0.0 | 0.00 | 0.08 | 0.08 | 99 | 1013.7 |
| 20260507074931 | 20 | 207 | 0.0 | 0.0 | 0.00 | 0.08 | 0.08 | 99 | 1013.7 |
| 20260507074428 | 20 | 208 | 0.0 | 0.0 | 0.00 | 0.08 | 0.08 | 99 | 1013.7 |
| 20260507073926 | 20 | 202 | 0.0 | 0.0 | 0.00 | 0.08 | 0.08 | 99 | 1013.8 |
| 20260507073422 | 20 | 201 | 0.0 | 0.0 | 0.00 | 0.08 | 0.08 | 99 | 1013.7 |
| 20260507072919 | 20 | 219 | 0.0 | 0.0 | 0.00 | 0.08 | 0.08 | 99 | 1013.5 |
| 20260507072416 | 20 | 206 | 0.0 | 0.0 | 0.18 | 0.08 | 0.08 | 98 | 1013.2 |
| 20260507071914 | 20 | 102 | 0.0 | 0.0 | 0.18 | 0.08 | 0.08 | 98 | 1013.4 |
| 20260507071411 | 20 | 206 | 0.0 | 0.0 | 0.18 | 0.05 | 0.05 | 97 | 1013.6 |
| 20260507070907 | 20 | 7 | 0.0 | 0.0 | 0.18 | 0.05 | 0.05 | 96 | 1013.8 |
| 20260507070405 | 20 | 245 | 0.0 | 0.0 | 0.13 | 0.03 | 0.03 | 95 | 1013.8 |
| 20260507065901 | 20 | 217 | 0.0 | 0.0 | 0.13 | 0.03 | 0.03 | 94 | 1014.4 |
| 20260507065358 | 20 | 187 | 0.0 | 0.0 | 0.00 | 0.00 | 0.00 | 93 | 1014.0 |
| 20260507064855 | 20 | 115 | 0.0 | 0.0 | 0.00 | 0.00 | 0.00 | 94 | 1014.4 |
| 20260507064353 | 20 | 53 | 0.0 | 0.0 | 0.00 | 0.00 | 0.00 | 92 | 1014.1 |
| 20260507063851 | 20 | 198 | 0.0 | 0.0 | 0.00 | 0.00 | 0.00 | 91 | 1014.1 |
| 20260507063348 | 20 | 198 | 0.0 | 0.0 | 0.00 | 0.00 | 0.00 | 88 | 1013.5 |
| 20260507062844 | 20 | 165 | 0.0 | 0.0 | 0.00 | 0.00 | 0.00 | 86 | 1013.1 |
| 20260507062341 | 21 | 165 | 0.0 | 0.0 | 0.00 | 0.00 | 0.00 | 85 | 1012.8 |
| 20260507061839 | 21 | 178 | 0.0 | 0.0 | 0.00 | 0.00 | 0.00 | 85 | 1012.7 |
| 20260507061337 | 21 | 181 | 0.0 | 0.0 | 0.00 | 0.00 | 0.00 | 84 | 1012.7 |
| 20260507060835 | 21 | 180 | 0.0 | 0.0 | 0.00 | 0.00 | 0.00 | 84 | 1012.6 |
| 20260507060332 | 21 | 180 | 0.0 | 0.0 | 0.00 | 0.00 | 0.00 | 84 | 1012.5 |
| 20260507055828 | 21 | 180 | 0.0 | 0.0 | 0.00 | 0.00 | 0.00 | 83 | 1012.6 |
| 20260507055323 | 21 | 180 | 0.0 | 0.0 | 0.00 | 0.00 | 0.00 | 83 | 1012.7 |
| 20260507054820 | 21 | 180 | 0.0 | 0.0 | 0.00 | 0.00 | 0.00 | 83 | 1012.9 |
| 20260507054316 | 21 | 180 | 0.0 | 0.0 | 0.00 | 0.00 | 0.00 | 83 | 1012.9 |
| 20260507053814 | 21 | 181 | 0.0 | 0.0 | 0.00 | 0.00 | 0.00 | 83 | 1013.4 |
| 20260507053312 | 21 | 181 | 0.0 | 0.0 | 0.00 | 0.00 | 0.00 | 83 | 1013.4 |
| 20260507052811 | 21 | 180 | 0.0 | 0.0 | 0.00 | 0.00 | 0.00 | 83 | 1013.3 |
| 20260507052307 | 21 | 190 | 0.0 | 0.0 | 0.00 | 0.00 | 0.00 | 84 | 1013.7 |
| 20260507051805 | 21 | 188 | 0.0 | 0.0 | 0.00 | 0.00 | 0.00 | 85 | 1014.0 |
| 20260507051302 | 21 | 188 | 0.0 | 0.0 | 0.00 | 0.00 | 0.00 | 84 | 1014.3 |
| 20260507050759 | 21 | 188 | 0.0 | 0.0 | 0.00 | 0.00 | 0.00 | 84 | 1014.2 |
| 20260507050255 | 21 | 189 | 0.0 | 0.0 | 0.00 | 0.00 | 0.00 | 86 | 1014.6 |
| 20260507045752 | 21 | 189 | 0.0 | 0.0 | 0.00 | 0.00 | 0.00 | 83 | 1014.7 |
| 20260507045249 | 21 | 189 | 0.0 | 0.0 | 0.00 | 0.00 | 0.00 | 83 | 1014.5 |
| 20260507044746 | 21 | 189 | 0.0 | 0.0 | 0.00 | 0.00 | 0.00 | 82 | 1014.3 |
| 20260507044242 | 21 | 187 | 0.0 | 0.0 | 0.00 | 0.00 | 0.00 | 81 | 1014.5 |
| 20260507043738 | 21 | 194 | 0.0 | 0.0 | 0.00 | 0.00 | 0.00 | 83 | 1014.7 |
| 20260507043235 | 21 | 202 | 0.0 | 0.0 | 0.00 | 0.00 | 0.00 | 81 | 1014.7 |
| 20260507042731 | 21 | 202 | 0.0 | 0.0 | 0.00 | 0.00 | 0.00 | 81 | 1014.3 |
| 20260507042226 | 22 | 202 | 0.0 | 0.0 | 0.00 | 0.00 | 0.00 | 81 | 1014.6 |
| 20260507041724 | 22 | 202 | 0.0 | 0.0 | 0.00 | 0.00 | 0.00 | 81 | 1014.4 |
| 20260507041220 | 22 | 202 | 0.0 | 0.0 | 0.00 | 0.00 | 0.00 | 80 | 1014.4 |
| 20260507040717 | 22 | 202 | 0.0 | 0.0 | 0.00 | 0.00 | 0.00 | 79 | 1014.4 |
| 20260507040213 | 22 | 202 | 0.0 | 0.0 | 0.00 | 0.00 | 0.00 | 79 | 1014.2 |
| 20260507035709 | 22 | 202 | 0.0 | 0.0 | 0.00 | 0.00 | 0.00 | 78 | 1014.2 |
| 20260507035205 | 22 | 202 | 0.0 | 0.0 | 0.00 | 0.00 | 0.00 | 79 | 1014.1 |
| 20260507034702 | 22 | 202 | 0.0 | 0.0 | 0.00 | 0.00 | 0.00 | 78 | 1014.2 |
| 20260507034200 | 22 | 203 | 0.0 | 0.0 | 0.00 | 0.00 | 0.00 | 79 | 1014.1 |
| 20260507033658 | 22 | 202 | 0.0 | 0.0 | 0.00 | 0.00 | 0.00 | 78 | 1014.2 |
| 20260507033155 | 22 | 202 | 0.0 | 0.0 | 0.00 | 0.00 | 0.00 | 79 | 1014.2 |
| 20260507032652 | 22 | 203 | 0.0 | 0.0 | 0.00 | 0.00 | 0.00 | 79 | 1014.7 |
| 20260507032148 | 22 | 203 | 0.0 | 0.0 | 0.00 | 0.00 | 0.00 | 80 | 1014.6 |
| 20260507031645 | 22 | 203 | 0.0 | 0.0 | 0.00 | 0.00 | 0.00 | 79 | 1014.7 |
| 20260507031141 | 22 | 203 | 0.0 | 0.0 | 0.00 | 0.00 | 0.00 | 78 | 1014.6 |
| 20260507030638 | 22 | 203 | 0.0 | 0.0 | 0.00 | 0.00 | 0.00 | 78 | 1014.6 |
| 20260507030136 | 22 | 203 | 0.0 | 0.0 | 0.00 | 0.00 | 0.00 | 78 | 1014.0 |
| 20260507025633 | 22 | 203 | 0.0 | 0.0 | 0.00 | 0.00 | 0.00 | 77 | 1014.3 |
| 20260507025130 | 22 | 203 | 0.0 | 0.0 | 0.00 | 0.00 | 0.00 | 77 | 1014.2 |
| 20260507024628 | 22 | 210 | 0.0 | 0.0 | 0.00 | 0.00 | 0.00 | 77 | 1014.2 |
| 20260507024125 | 22 | 209 | 0.0 | 0.0 | 0.00 | 0.00 | 0.00 | 77 | 1013.6 |
| 20260507023620 | 22 | 210 | 0.0 | 0.0 | 0.00 | 0.00 | 0.00 | 79 | 1013.5 |
| 20260507023118 | 22 | 209 | 0.0 | 0.0 | 0.00 | 0.00 | 0.00 | 78 | 1013.7 |
| 20260507022615 | 22 | 210 | 0.0 | 0.0 | 0.00 | 0.00 | 0.00 | 78 | 1013.8 |
| 20260507022110 | 22 | 223 | 0.0 | 0.0 | 0.00 | 0.00 | 0.00 | 78 | 1013.7 |
| 20260507021607 | 22 | 172 | 0.0 | 0.0 | 0.00 | 0.00 | 0.00 | 79 | 1013.5 |
| 20260507021103 | 22 | 172 | 0.0 | 0.0 | 0.00 | 0.00 | 0.00 | 79 | 1013.5 |
| 20260507020601 | 22 | 172 | 0.0 | 0.0 | 0.00 | 0.00 | 0.00 | 79 | 1013.6 |
| 20260507020057 | 22 | 171 | 0.0 | 0.0 | 0.00 | 0.00 | 0.00 | 78 | 1013.5 |
| 20260507015556 | 22 | 173 | 0.0 | 0.0 | 0.00 | 0.00 | 0.00 | 79 | 1013.4 |
| 20260507015053 | 22 | 173 | 0.0 | 0.0 | 0.00 | 0.00 | 0.00 | 79 | 1013.3 |
| 20260507014549 | 22 | 173 | 0.0 | 0.0 | 0.00 | 0.00 | 0.00 | 78 | 1013.2 |
| 20260507014045 | 22 | 173 | 0.0 | 0.0 | 0.00 | 0.00 | 0.00 | 77 | 1013.1 |
| 20260507013542 | 22 | 173 | 0.0 | 0.0 | 0.00 | 0.00 | 0.00 | 77 | 1012.8 |
| 20260507013039 | 23 | 173 | 0.0 | 0.0 | 0.00 | 0.00 | 0.00 | 76 | 1012.8 |
| 20260507012536 | 23 | 170 | 0.0 | 0.0 | 0.00 | 0.00 | 0.00 | 76 | 1012.8 |
| 20260507012032 | 23 | 170 | 0.0 | 0.0 | 0.00 | 0.00 | 0.00 | 76 | 1012.7 |
| 20260507011530 | 23 | 170 | 0.0 | 0.0 | 0.00 | 0.00 | 0.00 | 76 | 1012.8 |
| 20260507011026 | 23 | 168 | 0.0 | 0.0 | 0.00 | 0.00 | 0.00 | 76 | 1012.9 |
| 20260507010520 | 23 | 175 | 0.0 | 0.0 | 0.00 | 0.00 | 0.00 | 74 | 1013.3 |
| 20260507010017 | 23 | 174 | 0.0 | 0.0 | 0.00 | 0.00 | 0.00 | 75 | 1012.7 |
| 20260507005515 | 23 | 174 | 0.0 | 0.0 | 0.00 | 0.00 | 0.00 | 73 | 1012.9 |
| 20260507005011 | 23 | 183 | 0.0 | 0.0 | 0.00 | 0.00 | 0.00 | 75 | 1012.8 |
| 20260507004508 | 23 | 183 | 0.0 | 0.0 | 0.00 | 0.00 | 0.00 | 74 | 1012.9 |
| 20260507004006 | 24 | 196 | 0.0 | 0.0 | 0.00 | 0.00 | 0.00 | 73 | 1013.3 |
| 20260507003501 | 24 | 196 | 0.0 | 0.0 | 0.00 | 0.00 | 0.00 | 73 | 1013.3 |
| 20260507002955 | 24 | 196 | 0.0 | 0.0 | 0.00 | 0.00 | 0.00 | 72 | 1013.5 |
| 20260507002453 | 25 | 194 | 0.0 | 0.0 | 0.00 | 0.00 | 0.00 | 73 | 1013.7 |
| 20260507001949 | 25 | 194 | 0.0 | 0.0 | 0.00 | 0.00 | 0.00 | 73 | 1013.5 |
| 20260507001446 | 25 | 193 | 0.0 | 0.0 | 0.00 | 0.00 | 0.00 | 74 | 1013.3 |
| 20260507000943 | 25 | 231 | 0.0 | 0.0 | 0.00 | 0.00 | 0.00 | 73 | 1013.6 |
| 20260507000439 | 25 | 225 | 0.0 | 0.0 | 0.00 | 0.00 | 0.00 | 72 | 1013.5 |
| 20260506235934 | 26 | 225 | 0.0 | 0.0 | 0.00 | 0.00 | 0.00 | 71 | 1013.6 |
| 20260506235432 | 26 | 225 | 0.0 | 0.0 | 0.00 | 0.00 | 0.00 | 71 | 1013.4 |
| 20260506234927 | 26 | 224 | 0.0 | 0.0 | 0.00 | 0.00 | 0.00 | 70 | 1013.6 |
| 20260506234426 | 26 | 225 | 0.0 | 0.0 | 0.00 | 0.00 | 0.00 | 70 | 1013.6 |
| 20260506233923 | 26 | 223 | 0.0 | 0.0 | 0.00 | 0.00 | 0.00 | 69 | 1013.5 |
| 20260506233419 | 27 | 227 | 0.0 | 0.0 | 0.00 | 0.00 | 0.00 | 68 | 1013.5 |
| 20260506232916 | 27 | 200 | 0.0 | 0.0 | 0.00 | 0.00 | 0.00 | 66 | 1013.1 |
| 20260506232412 | 27 | 218 | 0.0 | 0.0 | 0.00 | 0.00 | 0.00 | 65 | 1013.4 |
| 20260506231908 | 27 | 217 | 0.0 | 0.0 | 0.00 | 0.00 | 0.00 | 65 | 1013.3 |
| 20260506231406 | 27 | 216 | 0.0 | 0.0 | 0.00 | 0.00 | 0.00 | 64 | 1013.4 |